This is the latest recevied weather packets stored in our database for station/object DM4XI-13. If no packets are shown the sender has not sent any weather packets the latest 10 day(s).
| Time | Temp. | Humidity | Pressure | Rain* | Wind** | Luminosity | Snow |
|---|---|---|---|---|---|---|---|
| 1777492175 | 8.33° C | 32% | 1023.9 hPa | 0 mm | 0.45 m/s, 342° | 0 W/m² | - |
| 1777492114 | 8.33° C | 32% | 1024 hPa | 0 mm | 0.89 m/s, 22° | 0 W/m² | - |
| 1777492053 | 8.33° C | 32% | 1023.9 hPa | 0 mm | 0.45 m/s, 337° | 0 W/m² | - |
| 1777491992 | 8.33° C | 32% | 1024 hPa | 0 mm | 0.89 m/s, 339° | 0 W/m² | - |
| 1777491931 | 8.33° C | 32% | 1024.1 hPa | 0 mm | 0.89 m/s, 324° | 0 W/m² | - |
| 1777491870 | 8.33° C | 32% | 1024 hPa | 0 mm | 0.45 m/s, 261° | 0 W/m² | - |
| 1777491809 | 8.33° C | 32% | 1023.9 hPa | 0 mm | 0.45 m/s, 208° | 0 W/m² | - |
| 1777491748 | 8.89° C | 32% | 1023.7 hPa | 0 mm | 1.79 m/s, 54° | 0 W/m² | - |
| 1777491687 | 8.89° C | 32% | 1023.8 hPa | 0 mm | 0.89 m/s, 27° | 0 W/m² | - |
| 1777491626 | 8.89° C | 31% | 1023.9 hPa | 0 mm | 0.45 m/s, 197° | 0 W/m² | - |
| 1777491566 | 8.89° C | 31% | 1023.6 hPa | 0 mm | 1.34 m/s, 68° | 0 W/m² | - |
| 1777491504 | 8.89° C | 31% | 1023.7 hPa | 0 mm | 1.34 m/s, 338° | 0 W/m² | - |
| 1777491443 | 8.89° C | 31% | 1023.8 hPa | 0 mm | 1.79 m/s, 18° | 0 W/m² | - |
| 1777491382 | 8.89° C | 31% | 1023.8 hPa | 0 mm | 1.34 m/s, 3° | 0 W/m² | - |
| 1777491321 | 8.89° C | 31% | 1023.6 hPa | 0 mm | 1.79 m/s, 32° | 0 W/m² | - |
| 1777491260 | 8.89° C | 31% | 1023.8 hPa | 0 mm | 1.79 m/s, 7° | 0 W/m² | - |
| 1777491199 | 8.89° C | 31% | 1023.6 hPa | 0 mm | 2.68 m/s, 327° | 0 W/m² | - |
| 1777491138 | 8.89° C | 31% | 1023.6 hPa | 0 mm | 3.13 m/s, 7° | 0 W/m² | - |
| 1777491077 | 8.89° C | 32% | 1023.6 hPa | 0 mm | 0.45 m/s, 186° | 0 W/m² | - |
| 1777491016 | 8.89° C | 31% | 1023.8 hPa | 0 mm | 1.34 m/s, 359° | 0 W/m² | - |
| 1777490955 | 8.89° C | 31% | 1023.6 hPa | 0 mm | 0.89 m/s, 15° | 0 W/m² | - |
| 1777490894 | 8.89° C | 31% | 1023.7 hPa | 0 mm | 0.89 m/s, 76° | 0 W/m² | - |
| 1777490833 | 8.89° C | 31% | 1023.8 hPa | 0 mm | 1.79 m/s, 26° | 0 W/m² | - |
| 1777490772 | 8.89° C | 31% | 1023.7 hPa | 0 mm | 0.89 m/s, 80° | 0 W/m² | - |
| 1777490711 | 8.89° C | 31% | 1023.6 hPa | 0 mm | 0.89 m/s, 48° | 0 W/m² | - |
* Rain latest hour (hover to see other rain measurements)
** Current wind speed in m/s (hover to see current wind gust speed)